{"data":{"norad_id":67277,"intl_designator":"2025-313AF","name":"2025-313AF","alt_names":[],"object_type":"PAYLOAD","status":"ACTIVE","operator":null,"country":"TBD","launch_date":"2025-12-28","launch_site_code":"VOSTO","launch_vehicle":null,"mission":null,"orbit_class":"UNKNOWN","rcs_meters":null,"size_class":null,"mass_kg":null,"dimensions":null,"purposes":[],"wikipedia_slug":null,"has_3d_model":false,"image_url":null,"decayed_at":null,"tle_current":{"epoch":"2026-09-20T22:36:16.688448Z","epoch_age_seconds":64906,"freshness":"FRESH","line1":"1 67277U 25313AF  26263.94185982  .00004088  00000+0  17326-3 0  9999","line2":"2 67277  97.3829 336.9500 0014136  36.8742 323.3464 15.23615030 40522","mean_motion":15.2361503,"eccentricity":0.0014136,"inclination_deg":97.3829,"raan_deg":336.95,"arg_perigee_deg":36.8742,"mean_anomaly_deg":323.3464,"bstar":0.00017326,"rev_number":4052,"period_min":94.512063194861,"perigee_km":485.2315901283,"apogee_km":504.66317429369,"semimajor_km":6873.084382211,"source":"CELESTRAK","updated_at":"2026-09-21T09:00:16.545678Z"}}}